Weather History for KPUB - April, 2013

Change the Weather History Date:

Sunday, April 7, 2013

  Actual Average Record
Temperature  
Mean Temperature 57 °F 48 °F  
Max Temperature 75 °F 65 °F 89 °F (1989)
Min Temperature 38 °F 31 °F 10 °F (1957)
Degree Days  
Heating Degree Days 8 17  
Month to date heating degree days 111 125  
Since 1 July heating degree days 5083 5130  
Cooling Degree Days 0 0  
Month to date cooling degree days 0 0  
Year to date cooling degree days 0 0  
Growing Degree Days 6 (Base 50)    
Moisture  
Dew Point 23 °F    
Average Humidity 40    
Maximum Humidity 70    
Minimum Humidity 9    
Precipitation  
Precipitation 0.00 in 0.04 in 0.59 in (1942)
Month to date precipitation 0.01 0.24  
Year to date precipitation 0.91 1.82  
Snow  
Snow 0.00 in 0.10 in 4.40 in (1942)
Month to date snowfall 0.1 1.1  
Since 1 July snowfall 20.5 28.6  
Snow Depth 0.00 in    
Sea Level Pressure  
Sea Level Pressure 29.64 in    
Wind  
Wind Speed 12 mph (WNW)    
Max Wind Speed 35 mph    
Max Gust Speed 43 mph    
Visibility 10 miles    
Events      
T = Trace of Precipitation, MM = Missing Value Source: NWS Daily Summary

Daily Weather History Graph

Daily Weather History Graph

Search for Another Location

Airport or City:

Trip Planner

Search our weather history database for the weather conditions in past years. The results will help you decide how hot, cold, wet, or windy it might be!

Date:

Astronomy

Apr. 07, 2013 Rise Set
Actual Time 6:33 AM MDT 7:27 PM MDT
Civil Twilight 6:06 AM MDT 7:54 PM MDT
Nautical Twilight 5:34 AM MDT 8:26 PM MDT
Astronomical Twilight 5:01 AM MDT 8:59 PM MDT
Moon 4:50 AM MDT (4/7) 5:03 PM MDT (4/7)
Length of Visible Light 13h 47m
Length of Day
12h 53m
Waning Crescent, 8% of the Moon is Illuminated
Apr 7
Waning Crescent
Apr 10
New
Apr 18
First Quarter
Apr 25
Full
May 2
Last Quarter

Hourly Weather History & Observations

Time (MDT) Temp. Windchill Dew Point Humidity Pressure Visibility Wind Dir Wind Speed Gust Speed Precip Events Conditions
12:53 AM 51.1 °F - 34.0 °F 52% 29.74 in 10.0 mi NNE 9.2 mph - N/A   Clear
1:53 AM 48.9 °F - 33.1 °F 54% 29.74 in 10.0 mi NNE 12.7 mph - N/A   Clear
2:53 AM 45.0 °F - 32.0 °F 60% 29.73 in 10.0 mi Calm Calm - N/A   Clear
3:53 AM 45.0 °F 38.9 °F 33.1 °F 63% 29.73 in 10.0 mi North 12.7 mph - N/A   Clear
4:53 AM 45.0 °F 41.2 °F 32.0 °F 60% 29.72 in 10.0 mi West 6.9 mph - N/A   Clear
5:53 AM 39.0 °F - 28.9 °F 67% 29.73 in 10.0 mi Calm Calm - N/A   Clear
6:53 AM 37.9 °F 32.1 °F 28.9 °F 70% 29.75 in 10.0 mi West 8.1 mph - N/A   Clear
7:53 AM 44.1 °F 41.5 °F 30.9 °F 60% 29.75 in 10.0 mi WSW 4.6 mph - N/A   Clear
8:53 AM 48.9 °F - 32.0 °F 52% 29.74 in 10.0 mi SW 4.6 mph - N/A   Clear
9:53 AM 63.0 °F - 25.0 °F 24% 29.68 in 10.0 mi West 16.1 mph 25.3 mph N/A   Clear
10:53 AM 64.9 °F - 18.0 °F 16% 29.66 in 10.0 mi WNW 23.0 mph 28.8 mph N/A   Clear
11:53 AM 68.0 °F - 18.0 °F 15% 29.64 in 10.0 mi NNW 17.3 mph 27.6 mph N/A   Clear
12:53 PM 70.0 °F - 16.0 °F 13% 29.60 in 10.0 mi West 16.1 mph 24.2 mph N/A   Clear
1:53 PM 73.0 °F - 10.9 °F 9% 29.56 in 10.0 mi West 27.6 mph 35.7 mph N/A   Clear
2:53 PM 73.0 °F - 14.0 °F 11% 29.56 in 10.0 mi WNW 18.4 mph 38.0 mph N/A   Clear
3:53 PM 72.0 °F - 15.1 °F 11% 29.54 in 10.0 mi WNW 18.4 mph 34.5 mph N/A   Clear
4:53 PM 72.0 °F - 17.1 °F 12% 29.53 in 10.0 mi WNW 21.9 mph 34.5 mph N/A   Clear
5:53 PM 72.0 °F - 17.1 °F 12% 29.54 in 10.0 mi West 16.1 mph 24.2 mph N/A   Clear
6:53 PM 68.0 °F - 14.0 °F 12% 29.56 in 10.0 mi NW 15.0 mph - N/A   Clear
7:53 PM 63.0 °F - 14.0 °F 15% 29.57 in 10.0 mi NW 13.8 mph - N/A   Clear
8:53 PM 60.1 °F - 16.0 °F 18% 29.60 in 10.0 mi NNW 11.5 mph - N/A   Clear
9:53 PM 57.0 °F - 21.0 °F 25% 29.60 in 10.0 mi East 6.9 mph - N/A   Clear
10:53 PM 55.9 °F - 23.0 °F 28% 29.60 in 10.0 mi East 4.6 mph - N/A   Clear
11:53 PM 52.0 °F - 21.9 °F 31% 29.60 in 10.0 mi Calm Calm - N/A   Clear